Volver al catálogo

FENGYUN 1C DEB

ActivoSSO
NORAD 31293·DEBRIS·🇨🇳 China

Lanzado May 10, 1999 desde Taiyuan Satellite Launch Center

Loading…

Próximos Pases (próximas 24 horas)

TLE

EnvejeciendoSource: Space-Track

Época: Sep 10, 2026, 06:40 UTC

1 31293U 99025BPB 26253.27805352  .00000065  00000-0  37762-4 0  9993
2 31293  98.4243 257.7412 0126723 161.3983 199.1895 14.30917137691273

Sigue FENGYUN 1C DEB en tiempo real con AllMySat

Download on the App Store